Погода в Атяшеве

Россия / Республика Мордовия     55°09′44″N   45°39′59″E
темп.,
°C
ветер,
м/с
пор.,
м/с
влажн.,
%
обл.,
%
осадки,
мм/ч
давл.,
гПа
погр.,
м
20 января, чт
чт2000:00−19юз3210070 0.0 101734
03:00−18ююз48100100 0.0 1017114
06:00−15ююз41194100 0.0 1016195
09:00−12ююз5139498 0.0 1015290
12:00−9ююз61592100 0.0 1015422
15:00−8ююз61490100 0.0 1014426
18:00−9ююз6149069 0.0 1014381
21:00−11ююз6159066 0.0 1014319
21 января, пт
пт2100:00−12ююз6168896 0.0 1015324
03:00−13ю6159176 0.0 1015301
06:00−14ю61691100 0.0 1015287
09:00−14ю61690100 0.0 1015289
12:00−11ю71787100 0.0 1015395
15:00−9ююв71786100 0.0 1013465
18:00−8ююв81784100 0.0 1012532
21:00−9юв81788100 0.0 1012522
22 января, сб
сб2200:00−9юв91894100 0.6 1011635
03:00−8ююв81692100 1.5 1010634
06:00−8ююв6129299 0.1 1012392
09:00−10ююв5119581 0.2 1016241
12:00−8ююв51293100 0.0 1017338
15:00−8ююв389314 0.0 1019170
18:00−12юв389747 0.0 1021104
21:00−13юв269979 0.0 102257
23 января, вс
вс2300:00−10вюв2699100 0.0 1023100
03:00−6в41096100 0.6 1022363
06:00−4юв61296100 1.4 1022646
09:00−5ююв61295100 2.4 1024620
12:00−5ююв51093100 0.3 1026529
15:00−5юв5994100 0.4 1028377
18:00−6юв4895100 0.4 1030295
21:00−7юв4995100 0.6 1032283
24 января, пн
пн2400:00−8вюв3891100 0.1 1033223
03:00−9вюв4990100 0.1 1034205
06:00−10вюв41087100 0.0 1033182
09:00−11вюв41188100 0.0 1034209
12:00−9юв41188100 0.0 1034261
15:00−9юв41091100 0.0 1033221
18:00−10юв41191100 0.0 1033189
21:00−10юв41189100 0.0 1032221